Los Angeles, CA

10:09 PM PST on February 27, 2017 (GMT -0800)
Los Angeles Downtown

Weather History for KCQT - May, 2009

Change the Weather History Date:

Saturday, May 9, 2009

  Actual Average Record
Temperature  
Mean Temperature 68 °F 65 °F  
Max Temperature 76 °F 74 °F 99 °F (1923)
Min Temperature 60 °F 57 °F 44 °F (1879)
Degree Days  
Heating Degree Days 0 2  
Month to date heating degree days 1 18  
Since 1 July heating degree days 820 1051  
Cooling Degree Days 3 2  
Month to date cooling degree days 38 18  
Year to date cooling degree days 163 105  
Growing Degree Days 18 (Base 50)    
Moisture  
Dew Point 55 °F    
Average Humidity 67    
Maximum Humidity 84    
Minimum Humidity 50    
Precipitation  
Precipitation 0.00 in 0.01 in 0.75 in (1977)
Month to date precipitation T 0.12  
Year to date precipitation 4.27 10.38  
Since 1 July precipitation 8.93  
Sea Level Pressure  
Sea Level Pressure 29.86 in    
Wind  
Wind Speed 1 mph (SSW)    
Max Wind Speed 9 mph    
Max Gust Speed 16 mph    
Visibility 6 miles    
Events      
T = Trace of Precipitation, MM = Missing Value Source: NWS Daily Summary

Daily Weather History Graph

Daily Weather History Graph

Search for Another Location

Airport or City:

Trip Planner

Search our weather history database for the weather conditions in past years. The results will help you decide how hot, cold, wet, or windy it might be!

Date:

Astronomy

May. 09, 2009 Rise Set
Actual Time 5:55 AM PDT 7:43 PM PDT
Civil Twilight 5:28 AM PDT 8:10 PM PDT
Nautical Twilight 4:55 AM PDT 8:43 PM PDT
Astronomical Twilight 4:20 AM PDT 9:18 PM PDT
Moon 8:45 PM PDT (5/9) 5:53 AM PDT (5/9)
Length of Visible Light 14h 41m
Length of Day
13h 47m
Full, 100% of the Moon is Illuminated
May 9
Full
May 17
Last Quarter
May 24
New
May 30
First Quarter
Jun 7
Full

Hourly Weather History & Observations

Time (PDT) Temp. Dew Point Humidity Pressure Visibility Wind Dir Wind Speed Gust Speed Precip Events Conditions
12:47 AM 62.1 °F 55.0 °F 78% 29.81 in 6.0 mi Calm Calm - N/A   Haze
1:11 AM 60.8 °F 55.4 °F 82% 29.82 in 6.0 mi Calm Calm - N/A   Haze
1:24 AM 60.8 °F 55.4 °F 82% 29.82 in 5.0 mi Calm Calm - N/A   Haze
1:47 AM 61.0 °F 55.9 °F 83% 29.81 in 5.0 mi Calm Calm - N/A   Haze
2:47 AM 61.0 °F 55.9 °F 83% 29.81 in 5.0 mi SSW 3.5 mph - N/A   Haze
3:47 AM 61.0 °F 55.0 °F 81% 29.83 in 5.0 mi Calm Calm - N/A   Haze
4:47 AM 60.1 °F 55.9 °F 86% 29.83 in 6.0 mi Calm Calm - N/A   Overcast
5:47 AM 61.0 °F 55.9 °F 83% 29.85 in 6.0 mi Calm Calm - N/A   Haze
6:47 AM 60.1 °F 55.0 °F 83% 29.87 in 4.0 mi Calm Calm - N/A   Haze
7:47 AM 60.1 °F 55.0 °F 83% 29.89 in 4.0 mi Calm Calm - N/A   Haze
8:47 AM 61.0 °F 55.0 °F 81% 29.90 in 4.0 mi Calm Calm - N/A   Haze
9:47 AM 64.0 °F 55.9 °F 75% 29.89 in 4.0 mi ESE 3.5 mph - N/A   Haze
10:24 AM 66.2 °F 55.4 °F 68% 29.89 in 4.0 mi Calm Calm - N/A   Haze
10:47 AM 66.9 °F 55.9 °F 68% 29.89 in 4.0 mi Calm Calm - N/A   Haze
11:47 AM 71.1 °F 55.0 °F 57% 29.88 in 7.0 mi Calm Calm - N/A   Clear
12:47 PM 75.0 °F 55.9 °F 51% 29.87 in 10.0 mi West 5.8 mph - N/A   Clear
1:47 PM 72.0 °F 55.0 °F 55% 29.88 in 10.0 mi Variable 5.8 mph - N/A   Clear
2:47 PM 70.0 °F 55.0 °F 59% 29.87 in 10.0 mi Variable 3.5 mph - N/A   Clear
3:47 PM 69.1 °F 55.0 °F 61% 29.86 in 9.0 mi SSW 3.5 mph - N/A   Clear
4:47 PM 71.1 °F 55.0 °F 57% 29.85 in 9.0 mi Calm Calm - N/A   Clear
5:47 PM 66.9 °F 55.0 °F 66% 29.85 in 8.0 mi Variable 3.5 mph - N/A   Clear
6:47 PM 66.0 °F 55.0 °F 68% 29.86 in 8.0 mi Variable 3.5 mph - N/A   Clear
7:47 PM 63.0 °F 54.0 °F 72% 29.86 in 6.0 mi Calm Calm - N/A   Haze
8:47 PM 62.1 °F 54.0 °F 75% 29.87 in 7.0 mi Calm Calm - N/A   Clear
9:47 PM 61.0 °F 54.0 °F 78% 29.89 in 6.0 mi Calm Calm - N/A   Haze
10:47 PM 61.0 °F 54.0 °F 78% 29.90 in 5.0 mi Calm Calm - N/A   Haze
11:47 PM 60.1 °F 54.0 °F 80% 29.90 in 5.0 mi Calm Calm - N/A   Haze